Voltar ao catálogo

SCOUT B DEB

LostUNKNOWN
NORAD 29174·DEBRIS·🇺🇸 United States

Lançado Aug 10, 1965 de Wallops Flight Facility

Loading…

Próximas Passagens (próximas 24 horas)

TLE

ObsoletoSource: Space-Track

Época: Jul 23, 2025, 21:00 UTC

1 29174U 65063Y   25204.87547565  .00000036  00000-0  46677-3 0  9995
2 29174  69.2717 283.5078 0662078 107.2191 260.2334 11.96491823 30580

Acompanhe SCOUT B DEB em tempo real com AllMySat

Download on the App Store